Time,TemperatureF,DewpointF,PressureIn,WindDirection,WindDirectionDegrees,WindSpeedMPH,WindSpeedGustMPH,Humidity,HourlyPrecipIn,Conditions,Clouds,dailyrainin,SoftwareType,DateUTC
2013-05-29 00:01:00,64.5,59.9,30.12,West,280,0.0,1.0,85,0.00,,,0.00,Wunderground v.1.13,2013-05-29 04:01:00,
2013-05-29 00:03:00,64.5,59.9,30.12,West,280,0.0,1.0,85,0.00,,,0.00,Wunderground v.1.13,2013-05-29 04:03:00,
2013-05-29 00:08:00,64.7,59.8,30.12,West,280,0.0,0.0,84,0.00,,,0.00,Wunderground v.1.13,2013-05-29 04:08:00,
2013-05-29 00:09:00,64.7,59.8,30.12,West,280,0.0,0.0,84,0.00,,,0.00,Wunderground v.1.13,2013-05-29 04:09:00,
2013-05-29 00:15:00,64.9,59.9,30.11,West,280,0.0,0.0,84,0.00,,,0.00,Wunderground v.1.13,2013-05-29 04:15:00,
2013-05-29 00:20:00,64.9,59.9,30.11,West,280,0.0,0.0,84,0.00,,,0.00,Wunderground v.1.13,2013-05-29 04:20:00,
2013-05-29 00:26:00,64.8,59.9,30.11,West,280,0.0,0.0,84,0.00,,,0.00,Wunderground v.1.13,2013-05-29 04:26:00,
2013-05-29 00:32:00,64.6,59.7,30.11,West,280,0.0,0.0,84,0.00,,,0.00,Wunderground v.1.13,2013-05-29 04:32:00,
2013-05-29 00:37:00,64.4,59.1,30.11,West,280,0.0,0.0,83,0.00,,,0.00,Wunderground v.1.13,2013-05-29 04:37:00,
2013-05-29 00:43:00,64.1,58.8,30.12,West,280,0.0,0.0,83,0.00,,,0.00,Wunderground v.1.13,2013-05-29 04:43:00,
2013-05-29 00:49:00,63.8,58.5,30.12,West,280,0.0,0.0,83,0.00,,,0.00,Wunderground v.1.13,2013-05-29 04:49:00,
2013-05-29 00:54:00,63.6,58.3,30.12,West,280,0.0,0.0,83,0.00,,,0.00,Wunderground v.1.13,2013-05-29 04:54:00,
2013-05-29 01:00:00,63.4,58.5,30.12,West,280,0.0,0.0,84,0.00,,,0.00,Wunderground v.1.13,2013-05-29 05:00:00,
2013-05-29 01:05:00,63.2,58.3,30.12,West,280,0.0,0.0,84,0.00,,,0.00,Wunderground v.1.13,2013-05-29 05:05:00,
2013-05-29 01:11:00,62.9,58.0,30.12,West,280,0.0,0.0,84,0.00,,,0.00,Wunderground v.1.13,2013-05-29 05:11:00,
2013-05-29 01:16:00,62.6,57.7,30.12,West,280,0.0,0.0,84,0.00,,,0.00,Wunderground v.1.13,2013-05-29 05:16:00,
2013-05-29 01:22:00,62.3,57.7,30.11,West,280,0.0,0.0,85,0.00,,,0.00,Wunderground v.1.13,2013-05-29 05:22:00,
2013-05-29 01:27:00,62.0,57.4,30.12,West,280,0.0,0.0,85,0.00,,,0.00,Wunderground v.1.13,2013-05-29 05:27:00,
2013-05-29 01:32:00,61.8,57.2,30.12,West,280,0.0,0.0,85,0.00,,,0.00,Wunderground v.1.13,2013-05-29 05:32:00,
2013-05-29 01:38:00,61.5,56.9,30.12,West,280,0.0,0.0,85,0.00,,,0.00,Wunderground v.1.13,2013-05-29 05:38:00,
2013-05-29 01:43:00,61.3,57.1,30.12,West,280,0.0,0.0,86,0.00,,,0.00,Wunderground v.1.13,2013-05-29 05:43:00,
2013-05-29 01:49:00,61.0,56.8,30.12,West,280,0.0,0.0,86,0.00,,,0.00,Wunderground v.1.13,2013-05-29 05:49:00,
2013-05-29 01:55:00,60.7,56.5,30.12,West,280,0.0,0.0,86,0.00,,,0.00,Wunderground v.1.13,2013-05-29 05:55:00,
2013-05-29 02:00:00,60.5,56.6,30.12,West,280,0.0,0.0,87,0.00,,,0.00,Wunderground v.1.13,2013-05-29 06:00:00,
2013-05-29 02:05:00,60.3,56.4,30.12,West,280,0.0,0.0,87,0.00,,,0.00,Wunderground v.1.13,2013-05-29 06:05:00,
2013-05-29 02:11:00,60.0,56.1,30.13,West,280,0.0,0.0,87,0.00,,,0.00,Wunderground v.1.13,2013-05-29 06:11:00,
2013-05-29 02:16:00,59.8,56.2,30.13,West,280,0.0,0.0,88,0.00,,,0.00,Wunderground v.1.13,2013-05-29 06:16:00,
2013-05-29 02:22:00,59.5,55.9,30.14,West,280,0.0,0.0,88,0.00,,,0.00,Wunderground v.1.13,2013-05-29 06:22:00,
2013-05-29 02:27:00,59.3,55.7,30.14,West,280,0.0,0.0,88,0.00,,,0.00,Wunderground v.1.13,2013-05-29 06:27:00,
2013-05-29 02:33:00,59.0,55.4,30.14,West,280,0.0,0.0,88,0.00,,,0.00,Wunderground v.1.13,2013-05-29 06:33:00,
2013-05-29 02:38:00,59.0,55.8,30.14,West,280,0.0,0.0,89,0.00,,,0.00,Wunderground v.1.13,2013-05-29 06:38:00,
2013-05-29 02:43:00,59.0,55.8,30.14,West,280,0.0,0.0,89,0.00,,,0.00,Wunderground v.1.13,2013-05-29 06:43:00,
2013-05-29 02:49:00,58.7,55.5,30.15,West,280,0.0,0.0,89,0.00,,,0.00,Wunderground v.1.13,2013-05-29 06:49:00,
2013-05-29 02:55:00,58.6,55.4,30.15,West,280,0.0,0.0,89,0.00,,,0.00,Wunderground v.1.13,2013-05-29 06:55:00,
2013-05-29 03:00:00,58.5,55.6,30.15,West,280,0.0,0.0,90,0.00,,,0.00,Wunderground v.1.13,2013-05-29 07:00:00,
2013-05-29 03:05:00,58.4,55.5,30.15,West,280,0.0,0.0,90,0.00,,,0.00,Wunderground v.1.13,2013-05-29 07:05:00,
2013-05-29 03:11:00,58.2,55.3,30.15,West,280,0.0,0.0,90,0.00,,,0.00,Wunderground v.1.13,2013-05-29 07:11:00,
2013-05-29 03:16:00,58.1,55.2,30.15,West,280,0.0,0.0,90,0.00,,,0.00,Wunderground v.1.13,2013-05-29 07:16:00,
2013-05-29 03:22:00,58.0,55.4,30.15,West,280,0.0,0.0,91,0.00,,,0.00,Wunderground v.1.13,2013-05-29 07:22:00,
2013-05-29 03:28:00,58.0,55.4,30.15,West,280,0.0,0.0,91,0.00,,,0.00,Wunderground v.1.13,2013-05-29 07:28:00,
2013-05-29 03:33:00,57.9,55.3,30.16,West,280,0.0,0.0,91,0.00,,,0.00,Wunderground v.1.13,2013-05-29 07:33:00,
2013-05-29 03:39:00,57.7,55.1,30.16,West,280,0.0,0.0,91,0.00,,,0.00,Wunderground v.1.13,2013-05-29 07:39:00,
2013-05-29 03:44:00,57.6,55.0,30.16,West,280,0.0,0.0,91,0.00,,,0.00,Wunderground v.1.13,2013-05-29 07:44:00,
2013-05-29 03:50:00,57.5,54.9,30.16,West,280,0.0,0.0,91,0.00,,,0.00,Wunderground v.1.13,2013-05-29 07:50:00,
2013-05-29 03:56:00,57.4,55.1,30.16,West,280,0.0,0.0,92,0.00,,,0.00,Wunderground v.1.13,2013-05-29 07:56:00,
2013-05-29 04:01:00,57.3,54.7,30.17,West,280,0.0,0.0,91,0.00,,,0.00,Wunderground v.1.13,2013-05-29 08:01:00,
2013-05-29 04:07:00,57.1,54.5,30.17,West,280,0.0,0.0,91,0.00,,,0.00,Wunderground v.1.13,2013-05-29 08:07:00,
2013-05-29 04:13:00,57.0,54.7,30.17,West,280,0.0,0.0,92,0.00,,,0.00,Wunderground v.1.13,2013-05-29 08:13:00,
2013-05-29 04:18:00,56.9,54.6,30.17,West,280,0.0,0.0,92,0.00,,,0.00,Wunderground v.1.13,2013-05-29 08:18:00,
2013-05-29 04:24:00,56.7,54.4,30.18,West,280,0.0,0.0,92,0.00,,,0.00,Wunderground v.1.13,2013-05-29 08:24:00,
2013-05-29 04:29:00,56.6,54.3,30.18,West,280,0.0,0.0,92,0.00,,,0.00,Wunderground v.1.13,2013-05-29 08:29:00,
2013-05-29 04:34:00,56.4,54.1,30.18,West,280,0.0,0.0,92,0.00,,,0.00,Wunderground v.1.13,2013-05-29 08:34:00,
2013-05-29 04:40:00,56.3,54.0,30.18,West,280,0.0,0.0,92,0.00,,,0.00,Wunderground v.1.13,2013-05-29 08:40:00,
2013-05-29 04:45:00,56.3,54.0,30.18,West,280,0.0,0.0,92,0.00,,,0.00,Wunderground v.1.13,2013-05-29 08:45:00,
2013-05-29 04:51:00,56.1,53.8,30.18,West,280,0.0,0.0,92,0.00,,,0.00,Wunderground v.1.13,2013-05-29 08:51:00,
2013-05-29 04:57:00,56.0,53.7,30.18,West,280,0.0,0.0,92,0.00,,,0.00,Wunderground v.1.13,2013-05-29 08:57:00,
2013-05-29 05:02:00,55.8,53.5,30.18,West,280,0.0,0.0,92,0.00,,,0.00,Wunderground v.1.13,2013-05-29 09:02:00,
2013-05-29 05:07:00,55.8,53.5,30.18,West,280,0.0,0.0,92,0.00,,,0.00,Wunderground v.1.13,2013-05-29 09:07:00,
2013-05-29 05:13:00,55.7,53.4,30.18,West,280,0.0,0.0,92,0.00,,,0.00,Wunderground v.1.13,2013-05-29 09:13:00,
2013-05-29 05:18:00,55.7,53.4,30.17,West,280,0.0,0.0,92,0.00,,,0.00,Wunderground v.1.13,2013-05-29 09:18:00,
2013-05-29 05:24:00,55.6,53.3,30.18,West,280,0.0,0.0,92,0.00,,,0.00,Wunderground v.1.13,2013-05-29 09:24:00,
2013-05-29 05:30:00,55.5,53.2,30.18,West,280,0.0,0.0,92,0.00,,,0.00,Wunderground v.1.13,2013-05-29 09:30:00,
2013-05-29 05:35:00,55.4,53.4,30.18,West,280,0.0,0.0,93,0.00,,,0.00,Wunderground v.1.13,2013-05-29 09:35:00,
2013-05-29 05:41:00,55.4,53.4,30.18,West,280,0.0,0.0,93,0.00,,,0.00,Wunderground v.1.13,2013-05-29 09:41:00,
2013-05-29 05:47:00,55.3,53.3,30.18,West,280,0.0,0.0,93,0.00,,,0.00,Wunderground v.1.13,2013-05-29 09:47:00,
2013-05-29 05:52:00,55.3,53.3,30.18,West,280,0.0,0.0,93,0.00,,,0.00,Wunderground v.1.13,2013-05-29 09:52:00,
2013-05-29 05:58:00,55.3,53.3,30.18,West,280,0.0,0.0,93,0.00,,,0.00,Wunderground v.1.13,2013-05-29 09:58:00,
2013-05-29 06:03:00,55.2,53.2,30.18,West,280,0.0,0.0,93,0.00,,,0.00,Wunderground v.1.13,2013-05-29 10:03:00,
2013-05-29 06:08:00,55.1,53.1,30.18,West,280,0.0,0.0,93,0.00,,,0.00,Wunderground v.1.13,2013-05-29 10:08:00,
2013-05-29 06:14:00,55.1,53.1,30.18,West,280,0.0,0.0,93,0.00,,,0.00,Wunderground v.1.13,2013-05-29 10:14:00,
2013-05-29 06:20:00,55.0,53.0,30.18,West,280,0.0,0.0,93,0.00,,,0.00,Wunderground v.1.13,2013-05-29 10:20:00,
2013-05-29 06:25:00,55.0,53.0,30.19,West,280,0.0,0.0,93,0.00,,,0.00,Wunderground v.1.13,2013-05-29 10:25:00,
2013-05-29 06:31:00,55.1,53.4,30.19,West,280,0.0,0.0,94,0.00,,,0.00,Wunderground v.1.13,2013-05-29 10:31:00,
2013-05-29 06:36:00,55.0,53.3,30.19,West,280,0.0,0.0,94,0.00,,,0.00,Wunderground v.1.13,2013-05-29 10:36:00,
2013-05-29 06:41:00,55.0,53.3,30.19,West,280,0.0,0.0,94,0.00,,,0.00,Wunderground v.1.13,2013-05-29 10:41:00,
2013-05-29 06:47:00,55.0,53.3,30.19,West,280,0.0,0.0,94,0.00,,,0.00,Wunderground v.1.13,2013-05-29 10:47:00,
2013-05-29 06:52:00,55.1,53.4,30.19,West,280,0.0,0.0,94,0.00,,,0.00,Wunderground v.1.13,2013-05-29 10:52:00,
2013-05-29 06:58:00,55.3,53.6,30.19,West,280,0.0,0.0,94,0.00,,,0.00,Wunderground v.1.13,2013-05-29 10:58:00,
2013-05-29 07:04:00,55.6,54.2,30.19,West,280,0.0,0.0,95,0.00,,,0.00,Wunderground v.1.13,2013-05-29 11:04:00,
2013-05-29 07:10:00,55.8,54.4,30.20,West,280,0.0,0.0,95,0.00,,,0.00,Wunderground v.1.13,2013-05-29 11:10:00,
2013-05-29 07:15:00,56.1,54.7,30.20,West,280,0.0,0.0,95,0.00,,,0.00,Wunderground v.1.13,2013-05-29 11:15:00,
2013-05-29 07:21:00,56.4,55.0,30.21,West,280,0.0,0.0,95,0.00,,,0.00,Wunderground v.1.13,2013-05-29 11:21:00,
2013-05-29 07:26:00,56.8,55.4,30.21,West,280,0.0,0.0,95,0.00,,,0.00,Wunderground v.1.13,2013-05-29 11:26:00,
2013-05-29 07:31:00,57.6,56.5,30.21,West,280,0.0,0.0,96,0.00,,,0.00,Wunderground v.1.13,2013-05-29 11:31:00,
2013-05-29 07:37:00,58.2,57.1,30.21,West,280,0.0,0.0,96,0.00,,,0.00,Wunderground v.1.13,2013-05-29 11:37:00,
2013-05-29 07:42:00,59.0,57.9,30.21,West,280,0.0,0.0,96,0.00,,,0.00,Wunderground v.1.13,2013-05-29 11:42:00,
2013-05-29 07:48:00,59.9,58.8,30.21,West,280,0.0,0.0,96,0.00,,,0.00,Wunderground v.1.13,2013-05-29 11:48:00,
2013-05-29 07:54:00,61.1,60.2,30.21,West,280,0.0,0.0,97,0.00,,,0.00,Wunderground v.1.13,2013-05-29 11:54:00,
2013-05-29 07:59:00,62.1,60.9,30.21,West,280,0.0,0.0,96,0.00,,,0.00,Wunderground v.1.13,2013-05-29 11:59:00,
2013-05-29 08:04:00,63.0,61.5,30.21,West,280,0.0,0.0,95,0.00,,,0.00,Wunderground v.1.13,2013-05-29 12:04:00,
2013-05-29 08:10:00,64.2,62.7,30.21,West,280,0.0,0.0,95,0.00,,,0.00,Wunderground v.1.13,2013-05-29 12:10:00,
2013-05-29 08:15:00,65.4,63.3,30.22,West,280,0.0,0.0,93,0.00,,,0.00,Wunderground v.1.13,2013-05-29 12:15:00,
2013-05-29 08:21:00,66.6,63.9,30.22,West,280,0.0,0.0,91,0.00,,,0.00,Wunderground v.1.13,2013-05-29 12:21:00,
2013-05-29 08:27:00,67.6,63.3,30.22,West,280,0.0,0.0,86,0.00,,,0.00,Wunderground v.1.13,2013-05-29 12:27:00,
2013-05-29 08:33:00,68.9,63.5,30.22,West,280,0.0,0.0,83,0.00,,,0.00,Wunderground v.1.13,2013-05-29 12:33:00,
2013-05-29 08:38:00,70.2,63.7,30.22,West,280,0.0,0.0,80,0.00,,,0.00,Wunderground v.1.13,2013-05-29 12:38:00,
2013-05-29 08:44:00,71.6,64.7,30.22,West,280,0.0,0.0,79,0.00,,,0.00,Wunderground v.1.13,2013-05-29 12:44:00,
2013-05-29 08:49:00,72.7,65.4,30.22,West,280,0.0,0.0,78,0.00,,,0.00,Wunderground v.1.13,2013-05-29 12:49:00,
2013-05-29 08:55:00,73.8,65.8,30.23,West,280,0.0,0.0,76,0.00,,,0.00,Wunderground v.1.13,2013-05-29 12:55:00,
2013-05-29 09:01:00,74.4,64.8,30.23,West,280,0.0,0.0,72,0.00,,,0.00,Wunderground v.1.13,2013-05-29 13:01:00,
2013-05-29 09:06:00,74.9,66.1,30.22,West,280,0.0,0.0,74,0.00,,,0.00,Wunderground v.1.13,2013-05-29 13:06:00,
2013-05-29 09:11:00,75.5,66.2,30.22,West,280,0.0,0.0,73,0.00,,,0.00,Wunderground v.1.13,2013-05-29 13:11:00,
2013-05-29 09:17:00,76.0,65.1,30.22,West,280,0.0,0.0,69,0.00,,,0.00,Wunderground v.1.13,2013-05-29 13:17:00,
2013-05-29 09:23:00,76.3,65.0,30.23,West,280,0.0,0.0,68,0.00,,,0.00,Wunderground v.1.13,2013-05-29 13:23:00,
2013-05-29 09:28:00,76.9,64.7,30.23,West,280,0.0,2.0,66,0.00,,,0.00,Wunderground v.1.13,2013-05-29 13:28:00,
2013-05-29 09:34:00,77.3,64.2,30.23,West,280,0.0,0.0,64,0.00,,,0.00,Wunderground v.1.13,2013-05-29 13:34:00,
2013-05-29 09:40:00,77.4,64.7,30.23,West,280,0.0,0.0,65,0.00,,,0.00,Wunderground v.1.13,2013-05-29 13:40:00,
2013-05-29 09:45:00,77.8,65.1,30.23,West,280,0.0,0.0,65,0.00,,,0.00,Wunderground v.1.13,2013-05-29 13:45:00,
2013-05-29 09:51:00,78.3,65.6,30.23,West,280,0.0,0.0,65,0.00,,,0.00,Wunderground v.1.13,2013-05-29 13:51:00,
2013-05-29 09:57:00,78.9,65.2,30.23,West,280,0.0,0.0,63,0.00,,,0.00,Wunderground v.1.13,2013-05-29 13:57:00,
2013-05-29 10:02:00,79.1,65.4,30.23,West,280,0.0,0.0,63,0.00,,,0.00,Wunderground v.1.13,2013-05-29 14:02:00,
2013-05-29 10:07:00,79.3,66.1,30.23,West,280,0.0,0.0,64,0.00,,,0.00,Wunderground v.1.13,2013-05-29 14:07:00,
2013-05-29 10:13:00,79.8,65.6,30.23,West,280,0.0,0.0,62,0.00,,,0.00,Wunderground v.1.13,2013-05-29 14:13:00,
2013-05-29 10:19:00,80.7,65.5,30.23,West,280,0.0,0.0,60,0.00,,,0.00,Wunderground v.1.13,2013-05-29 14:19:00,
2013-05-29 10:25:00,80.7,65.5,30.23,West,280,0.0,0.0,60,0.00,,,0.00,Wunderground v.1.13,2013-05-29 14:25:00,
2013-05-29 10:31:00,81.0,65.8,30.23,West,280,0.0,2.0,60,0.00,,,0.00,Wunderground v.1.13,2013-05-29 14:31:00,
2013-05-29 10:36:00,81.1,64.9,30.23,West,280,0.0,0.0,58,0.00,,,0.00,Wunderground v.1.13,2013-05-29 14:36:00,
2013-05-29 10:41:00,81.6,65.4,30.22,West,280,0.0,1.0,58,0.00,,,0.00,Wunderground v.1.13,2013-05-29 14:41:00,
2013-05-29 10:47:00,82.2,64.9,30.23,West,280,0.0,2.0,56,0.00,,,0.00,Wunderground v.1.13,2013-05-29 14:47:00,
2013-05-29 10:52:00,82.2,65.4,30.23,West,280,1.0,2.0,57,0.00,,,0.00,Wunderground v.1.13,2013-05-29 14:52:00,
2013-05-29 10:58:00,82.0,65.3,30.22,West,280,0.0,1.0,57,0.00,,,0.00,Wunderground v.1.13,2013-05-29 14:58:00,
2013-05-29 11:03:00,82.3,65.0,30.22,West,280,0.0,3.0,56,0.00,,,0.00,Wunderground v.1.13,2013-05-29 15:03:00,
2013-05-29 11:09:00,82.7,64.4,30.22,West,280,1.0,2.0,54,0.00,,,0.00,Wunderground v.1.13,2013-05-29 15:09:00,
2013-05-29 11:14:00,83.2,63.7,30.22,West,280,0.0,1.0,52,0.00,,,0.00,Wunderground v.1.13,2013-05-29 15:14:00,
2013-05-29 11:20:00,84.2,65.2,30.22,West,280,0.0,0.0,53,0.00,,,0.00,Wunderground v.1.13,2013-05-29 15:20:00,
2013-05-29 11:25:00,83.7,64.8,30.22,West,280,1.0,1.0,53,0.00,,,0.00,Wunderground v.1.13,2013-05-29 15:25:00,
2013-05-29 11:31:00,83.0,64.6,30.22,West,276,1.0,1.0,54,0.00,,,0.00,Wunderground v.1.13,2013-05-29 15:31:00,
2013-05-29 11:36:00,82.7,64.9,30.22,West,265,0.0,6.0,55,0.00,,,0.00,Wunderground v.1.13,2013-05-29 15:36:00,
2013-05-29 11:41:00,82.8,65.0,30.22,West,265,1.0,1.0,55,0.00,,,0.00,Wunderground v.1.13,2013-05-29 15:41:00,
2013-05-29 11:47:00,83.5,65.1,30.22,West,264,0.0,2.0,54,0.00,,,0.00,Wunderground v.1.13,2013-05-29 15:47:00,
2013-05-29 11:53:00,83.9,66.0,30.22,West,261,1.0,3.0,55,0.00,,,0.00,Wunderground v.1.13,2013-05-29 15:53:00,
2013-05-29 11:58:00,83.9,64.4,30.22,WSW,251,2.0,5.0,52,0.00,,,0.00,Wunderground v.1.13,2013-05-29 15:58:00,
2013-05-29 12:04:00,83.7,64.2,30.22,West,275,3.0,7.0,52,0.00,,,0.00,Wunderground v.1.13,2013-05-29 16:04:00,
2013-05-29 12:10:00,83.7,65.3,30.22,West,273,3.0,3.0,54,0.00,,,0.00,Wunderground v.1.13,2013-05-29 16:10:00,
2013-05-29 12:15:00,83.8,65.4,30.22,WSW,251,2.0,4.0,54,0.00,,,0.00,Wunderground v.1.13,2013-05-29 16:15:00,
2013-05-29 12:21:00,83.8,64.3,30.22,WSW,252,3.0,3.0,52,0.00,,,0.00,Wunderground v.1.13,2013-05-29 16:21:00,
2013-05-29 12:26:00,83.8,65.4,30.22,West,263,3.0,4.0,54,0.00,,,0.00,Wunderground v.1.13,2013-05-29 16:26:00,
2013-05-29 12:32:00,83.8,64.3,30.22,West,275,3.0,4.0,52,0.00,,,0.00,Wunderground v.1.13,2013-05-29 16:32:00,
2013-05-29 12:37:00,83.6,64.7,30.22,WNW,295,4.0,6.0,53,0.00,,,0.00,Wunderground v.1.13,2013-05-29 16:37:00,
2013-05-29 12:43:00,83.7,64.8,30.22,West,278,3.0,4.0,53,0.00,,,0.00,Wunderground v.1.13,2013-05-29 16:43:00,
2013-05-29 12:48:00,84.3,64.8,30.22,West,277,3.0,7.0,52,0.00,,,0.00,Wunderground v.1.13,2013-05-29 16:48:00,
2013-05-29 12:54:00,84.7,65.1,30.22,West,280,4.0,6.0,52,0.00,,,0.00,Wunderground v.1.13,2013-05-29 16:54:00,
2013-05-29 12:59:00,85.4,65.8,30.21,West,273,2.0,5.0,52,0.00,,,0.00,Wunderground v.1.13,2013-05-29 16:59:00,
2013-05-29 13:05:00,86.0,65.8,30.21,West,277,1.0,1.0,51,0.00,,,0.00,Wunderground v.1.13,2013-05-29 17:05:00,
2013-05-29 13:11:00,86.3,66.0,30.21,West,281,1.0,1.0,51,0.00,,,0.00,Wunderground v.1.13,2013-05-29 17:11:00,
2013-05-29 13:17:00,86.3,66.0,30.21,WNW,288,2.0,5.0,51,0.00,,,0.00,Wunderground v.1.13,2013-05-29 17:17:00,
2013-05-29 13:22:00,86.2,65.4,30.21,West,270,3.0,4.0,50,0.00,,,0.00,Wunderground v.1.13,2013-05-29 17:22:00,
2013-05-29 13:28:00,86.1,65.9,30.21,West,270,2.0,2.0,51,0.00,,,0.00,Wunderground v.1.13,2013-05-29 17:28:00,
2013-05-29 13:34:00,86.1,67.0,30.21,WNW,296,1.0,5.0,53,0.00,,,0.00,Wunderground v.1.13,2013-05-29 17:34:00,
2013-05-29 13:40:00,85.8,67.8,30.20,West,275,3.0,7.0,55,0.00,,,0.00,Wunderground v.1.13,2013-05-29 17:40:00,
2013-05-29 13:45:00,85.6,67.6,30.20,WSW,243,3.0,3.0,55,0.00,,,0.00,Wunderground v.1.13,2013-05-29 17:45:00,
2013-05-29 13:51:00,85.6,67.0,30.20,WNW,282,3.0,6.0,54,0.00,,,0.00,Wunderground v.1.13,2013-05-29 17:51:00,
2013-05-29 13:56:00,85.3,66.8,30.20,WNW,283,4.0,8.0,54,0.00,,,0.00,Wunderground v.1.13,2013-05-29 17:56:00,
2013-05-29 14:02:00,85.4,65.8,30.19,WNW,282,2.0,3.0,52,0.00,,,0.00,Wunderground v.1.13,2013-05-29 18:02:00,
2013-05-29 14:08:00,85.3,66.8,30.19,NNW,332,1.0,5.0,54,0.00,,,0.00,Wunderground v.1.13,2013-05-29 18:08:00,
2013-05-29 14:14:00,85.3,65.7,30.19,WNW,292,3.0,3.0,52,0.00,,,0.00,Wunderground v.1.13,2013-05-29 18:14:00,
2013-05-29 14:19:00,86.0,65.8,30.19,WNW,292,2.0,3.0,51,0.00,,,0.00,Wunderground v.1.13,2013-05-29 18:19:00,
2013-05-29 14:25:00,86.3,65.5,30.19,NW,307,2.0,2.0,50,0.00,,,0.00,Wunderground v.1.13,2013-05-29 18:25:00,
2013-05-29 14:30:00,86.2,65.4,30.18,NW,307,1.0,1.0,50,0.00,,,0.00,Wunderground v.1.13,2013-05-29 18:30:00,
2013-05-29 14:35:00,86.8,66.5,30.18,NW,306,0.0,5.0,51,0.00,,,0.00,Wunderground v.1.13,2013-05-29 18:35:00,
2013-05-29 14:41:00,87.1,66.2,30.18,WNW,291,1.0,3.0,50,0.00,,,0.00,Wunderground v.1.13,2013-05-29 18:41:00,
2013-05-29 14:47:00,86.6,65.2,30.17,SW,223,2.0,2.0,49,0.00,,,0.00,Wunderground v.1.13,2013-05-29 18:47:00,
2013-05-29 14:52:00,86.6,66.3,30.17,SW,223,2.0,6.0,51,0.00,,,0.00,Wunderground v.1.13,2013-05-29 18:52:00,
2013-05-29 14:58:00,86.2,65.9,30.16,SW,228,2.0,6.0,51,0.00,,,0.00,Wunderground v.1.13,2013-05-29 18:58:00,
2013-05-29 15:03:00,86.2,65.4,30.16,SW,221,2.0,4.0,50,0.00,,,0.00,Wunderground v.1.13,2013-05-29 19:03:00,
2013-05-29 15:08:00,86.6,65.2,30.16,WSW,247,1.0,4.0,49,0.00,,,0.00,Wunderground v.1.13,2013-05-29 19:08:00,
2013-05-29 15:14:00,86.9,65.4,30.16,WSW,248,1.0,4.0,49,0.00,,,0.00,Wunderground v.1.13,2013-05-29 19:14:00,
2013-05-29 15:20:00,86.9,65.4,30.15,WSW,248,1.0,1.0,49,0.00,,,0.00,Wunderground v.1.13,2013-05-29 19:20:00,
2013-05-29 15:25:00,87.3,67.0,30.15,WSW,247,0.0,2.0,51,0.00,,,0.00,Wunderground v.1.13,2013-05-29 19:25:00,
2013-05-29 15:31:00,87.4,65.3,30.15,SW,235,1.0,4.0,48,0.00,,,0.00,Wunderground v.1.13,2013-05-29 19:31:00,
2013-05-29 15:37:00,87.3,65.8,30.14,SW,235,2.0,2.0,49,0.00,,,0.00,Wunderground v.1.13,2013-05-29 19:37:00,
2013-05-29 15:43:00,87.4,65.3,30.14,South,180,1.0,2.0,48,0.00,,,0.00,Wunderground v.1.13,2013-05-29 19:43:00,
2013-05-29 15:48:00,87.5,64.8,30.14,South,180,1.0,5.0,47,0.00,,,0.00,Wunderground v.1.13,2013-05-29 19:48:00,
2013-05-29 15:54:00,87.7,65.0,30.13,South,181,0.0,2.0,47,0.00,,,0.00,Wunderground v.1.13,2013-05-29 19:54:00,
2013-05-29 15:59:00,88.2,66.0,30.13,South,181,0.0,1.0,48,0.00,,,0.00,Wunderground v.1.13,2013-05-29 19:59:00,
2013-05-29 16:04:00,88.2,64.8,30.13,SSE,167,0.0,1.0,46,0.00,,,0.00,Wunderground v.1.13,2013-05-29 20:04:00,
2013-05-29 16:10:00,87.8,65.1,30.13,SE,138,1.0,1.0,47,0.00,,,0.00,Wunderground v.1.13,2013-05-29 20:10:00,
2013-05-29 16:16:00,87.9,64.5,30.13,SE,138,0.0,1.0,46,0.00,,,0.00,Wunderground v.1.13,2013-05-29 20:16:00,
2013-05-29 16:21:00,88.3,66.1,30.13,SE,138,0.0,0.0,48,0.00,,,0.00,Wunderground v.1.13,2013-05-29 20:21:00,
2013-05-29 16:27:00,88.1,65.9,30.13,ESE,114,0.0,7.0,48,0.00,,,0.00,Wunderground v.1.13,2013-05-29 20:27:00,
2013-05-29 16:33:00,87.1,65.0,30.13,East,101,2.0,2.0,48,0.00,,,0.00,Wunderground v.1.13,2013-05-29 20:33:00,
2013-05-29 16:38:00,87.0,66.1,30.13,East,101,1.0,2.0,50,0.00,,,0.00,Wunderground v.1.13,2013-05-29 20:38:00,
2013-05-29 16:44:00,87.4,66.5,30.12,SE,143,1.0,5.0,50,0.00,,,0.00,Wunderground v.1.13,2013-05-29 20:44:00,
2013-05-29 16:50:00,87.5,66.0,30.12,SSE,153,1.0,1.0,49,0.00,,,0.00,Wunderground v.1.13,2013-05-29 20:50:00,
2013-05-29 16:55:00,87.5,66.0,30.12,SSE,154,1.0,1.0,49,0.00,,,0.00,Wunderground v.1.13,2013-05-29 20:55:00,
2013-05-29 17:01:00,87.3,64.6,30.12,SSE,148,1.0,1.0,47,0.00,,,0.00,Wunderground v.1.13,2013-05-29 21:01:00,
2013-05-29 17:07:00,87.4,65.3,30.12,SSE,148,0.0,0.0,48,0.00,,,0.00,Wunderground v.1.13,2013-05-29 21:07:00,
2013-05-29 17:13:00,86.9,64.8,30.12,East,84,1.0,6.0,48,0.00,,,0.00,Wunderground v.1.13,2013-05-29 21:13:00,
2013-05-29 17:18:00,86.5,65.1,30.12,East,84,1.0,1.0,49,0.00,,,0.00,Wunderground v.1.13,2013-05-29 21:18:00,
2013-05-29 17:24:00,86.5,65.1,30.12,East,84,0.0,1.0,49,0.00,,,0.00,Wunderground v.1.13,2013-05-29 21:24:00,
2013-05-29 17:29:00,86.6,64.6,30.12,East,84,0.0,0.0,48,0.00,,,0.00,Wunderground v.1.13,2013-05-29 21:29:00,
2013-05-29 17:34:00,86.8,64.8,30.12,East,84,0.0,0.0,48,0.00,,,0.00,Wunderground v.1.13,2013-05-29 21:34:00,
2013-05-29 17:40:00,86.9,65.4,30.11,East,85,0.0,0.0,49,0.00,,,0.00,Wunderground v.1.13,2013-05-29 21:40:00,
2013-05-29 17:46:00,87.0,64.9,30.11,East,85,0.0,0.0,48,0.00,,,0.00,Wunderground v.1.13,2013-05-29 21:46:00,
2013-05-29 17:51:00,87.0,65.5,30.11,East,85,0.0,0.0,49,0.00,,,0.00,Wunderground v.1.13,2013-05-29 21:51:00,
2013-05-29 17:57:00,87.0,64.9,30.11,East,85,0.0,0.0,48,0.00,,,0.00,Wunderground v.1.13,2013-05-29 21:57:00,
2013-05-29 18:02:00,87.0,65.5,30.11,East,85,0.0,2.0,49,0.00,,,0.00,Wunderground v.1.13,2013-05-29 22:02:00,
2013-05-29 18:07:00,87.1,65.0,30.11,East,85,0.0,0.0,48,0.00,,,0.00,Wunderground v.1.13,2013-05-29 22:07:00,
2013-05-29 18:13:00,87.2,64.5,30.11,East,85,0.0,0.0,47,0.00,,,0.00,Wunderground v.1.13,2013-05-29 22:13:00,
2013-05-29 18:18:00,87.4,65.9,30.11,East,85,0.0,0.0,49,0.00,,,0.00,Wunderground v.1.13,2013-05-29 22:18:00,
2013-05-29 18:24:00,87.1,65.6,30.11,ENE,63,1.0,3.0,49,0.00,,,0.00,Wunderground v.1.13,2013-05-29 22:24:00,
2013-05-29 18:30:00,86.5,65.7,30.11,ENE,63,1.0,1.0,50,0.00,,,0.00,Wunderground v.1.13,2013-05-29 22:30:00,
2013-05-29 18:35:00,86.0,65.2,30.11,ENE,63,0.0,0.0,50,0.00,,,0.00,Wunderground v.1.13,2013-05-29 22:35:00,
2013-05-29 18:40:00,85.7,65.5,30.11,ENE,63,0.0,0.0,51,0.00,,,0.00,Wunderground v.1.13,2013-05-29 22:40:00,
2013-05-29 18:46:00,85.6,66.0,30.11,ENE,63,0.0,0.0,52,0.00,,,0.00,Wunderground v.1.13,2013-05-29 22:46:00,
2013-05-29 18:52:00,85.5,65.9,30.11,ENE,63,1.0,1.0,52,0.00,,,0.00,Wunderground v.1.13,2013-05-29 22:52:00,
2013-05-29 18:57:00,85.2,65.6,30.11,ENE,61,1.0,2.0,52,0.00,,,0.00,Wunderground v.1.13,2013-05-29 22:57:00,
2013-05-29 19:02:00,84.8,65.2,30.11,ENE,61,1.0,1.0,52,0.00,,,0.00,Wunderground v.1.13,2013-05-29 23:02:00,
2013-05-29 19:08:00,84.7,65.1,30.10,ENE,61,0.0,0.0,52,0.00,,,0.00,Wunderground v.1.13,2013-05-29 23:08:00,
2013-05-29 19:13:00,84.6,65.6,30.10,ENE,61,0.0,1.0,53,0.00,,,0.00,Wunderground v.1.13,2013-05-29 23:13:00,
2013-05-29 19:19:00,84.5,65.5,30.10,ENE,61,0.0,0.0,53,0.00,,,0.00,Wunderground v.1.13,2013-05-29 23:19:00,
2013-05-29 19:25:00,84.3,65.3,30.10,ENE,61,0.0,0.0,53,0.00,,,0.00,Wunderground v.1.13,2013-05-29 23:25:00,
2013-05-29 19:30:00,84.2,65.8,30.10,ENE,61,0.0,0.0,54,0.00,,,0.00,Wunderground v.1.13,2013-05-29 23:30:00,
2013-05-29 19:36:00,84.2,66.8,30.11,ENE,61,0.0,0.0,56,0.00,,,0.00,Wunderground v.1.13,2013-05-29 23:36:00,
2013-05-29 19:42:00,84.2,66.8,30.11,ENE,61,0.0,0.0,56,0.00,,,0.00,Wunderground v.1.13,2013-05-29 23:42:00,
2013-05-29 19:47:00,84.1,66.7,30.11,ENE,61,0.0,0.0,56,0.00,,,0.00,Wunderground v.1.13,2013-05-29 23:47:00,
2013-05-29 19:53:00,83.9,65.5,30.11,ENE,61,0.0,0.0,54,0.00,,,0.00,Wunderground v.1.13,2013-05-29 23:53:00,
2013-05-29 19:58:00,83.9,67.0,30.11,ENE,61,0.0,0.0,57,0.00,,,0.00,Wunderground v.1.13,2013-05-29 23:58:00,
2013-05-29 20:03:00,83.7,69.3,30.11,ENE,61,0.0,0.0,62,0.00,,,0.00,Wunderground v.1.13,2013-05-30 00:03:00,
2013-05-29 20:09:00,83.2,69.3,30.11,ENE,61,0.0,0.0,63,0.00,,,0.00,Wunderground v.1.13,2013-05-30 00:09:00,
2013-05-29 20:15:00,82.6,69.6,30.11,ENE,61,0.0,0.0,65,0.00,,,0.00,Wunderground v.1.13,2013-05-30 00:15:00,
2013-05-29 20:20:00,82.2,69.7,30.11,ENE,61,0.0,0.0,66,0.00,,,0.00,Wunderground v.1.13,2013-05-30 00:20:00,
2013-05-29 20:26:00,81.5,69.5,30.11,ENE,61,0.0,0.0,67,0.00,,,0.00,Wunderground v.1.13,2013-05-30 00:26:00,
2013-05-29 20:31:00,80.9,69.3,30.11,ENE,61,0.0,0.0,68,0.00,,,0.00,Wunderground v.1.13,2013-05-30 00:31:00,
2013-05-29 20:37:00,80.1,68.6,30.12,ENE,61,0.0,0.0,68,0.00,,,0.00,Wunderground v.1.13,2013-05-30 00:37:00,
2013-05-29 20:43:00,79.5,68.9,30.12,ENE,61,0.0,0.0,70,0.00,,,0.00,Wunderground v.1.13,2013-05-30 00:43:00,
2013-05-29 20:49:00,78.9,68.3,30.12,ENE,61,0.0,0.0,70,0.00,,,0.00,Wunderground v.1.13,2013-05-30 00:49:00,
2013-05-29 20:54:00,78.5,68.3,30.12,ENE,61,0.0,0.0,71,0.00,,,0.00,Wunderground v.1.13,2013-05-30 00:54:00,
2013-05-29 21:00:00,77.7,68.0,30.12,ENE,61,0.0,0.0,72,0.00,,,0.00,Wunderground v.1.13,2013-05-30 01:00:00,
2013-05-29 21:05:00,77.2,67.5,30.12,ENE,61,0.0,0.0,72,0.00,,,0.00,Wunderground v.1.13,2013-05-30 01:05:00,
2013-05-29 21:10:00,76.5,67.2,30.12,ENE,61,0.0,0.0,73,0.00,,,0.00,Wunderground v.1.13,2013-05-30 01:10:00,
2013-05-29 21:16:00,75.8,66.9,30.12,ENE,61,0.0,0.0,74,0.00,,,0.00,Wunderground v.1.13,2013-05-30 01:16:00,
2013-05-29 21:21:00,75.4,66.5,30.12,ENE,61,1.0,5.0,74,0.00,,,0.00,Wunderground v.1.13,2013-05-30 01:21:00,
2013-05-29 21:27:00,74.8,66.0,30.13,ENE,61,1.0,3.0,74,0.00,,,0.00,Wunderground v.1.13,2013-05-30 01:27:00,
2013-05-29 21:33:00,74.5,66.1,30.13,ENE,61,1.0,1.0,75,0.00,,,0.00,Wunderground v.1.13,2013-05-30 01:33:00,
2013-05-29 21:39:00,74.2,65.8,30.13,ENE,61,0.0,1.0,75,0.00,,,0.00,Wunderground v.1.13,2013-05-30 01:39:00,
2013-05-29 21:44:00,74.1,66.0,30.13,ENE,61,0.0,0.0,76,0.00,,,0.00,Wunderground v.1.13,2013-05-30 01:44:00,
2013-05-29 21:50:00,73.9,65.9,30.13,ENE,61,0.0,0.0,76,0.00,,,0.00,Wunderground v.1.13,2013-05-30 01:50:00,
2013-05-29 21:55:00,73.6,65.9,30.13,ENE,61,0.0,0.0,77,0.00,,,0.00,Wunderground v.1.13,2013-05-30 01:55:00,
2013-05-29 22:01:00,73.2,65.6,30.13,ENE,61,0.0,0.0,77,0.00,,,0.00,Wunderground v.1.13,2013-05-30 02:01:00,
2013-05-29 22:06:00,73.0,65.7,30.13,ENE,61,0.0,0.0,78,0.00,,,0.00,Wunderground v.1.13,2013-05-30 02:06:00,
2013-05-29 22:12:00,72.6,65.3,30.14,ENE,61,0.0,0.0,78,0.00,,,0.00,Wunderground v.1.13,2013-05-30 02:12:00,
2013-05-29 22:17:00,72.2,65.3,30.14,ENE,61,0.0,0.0,79,0.00,,,0.00,Wunderground v.1.13,2013-05-30 02:17:00,
2013-05-29 22:23:00,71.9,65.0,30.14,ENE,61,0.0,0.0,79,0.00,,,0.00,Wunderground v.1.13,2013-05-30 02:23:00,
2013-05-29 22:28:00,71.6,65.1,30.14,ENE,61,0.0,0.0,80,0.00,,,0.00,Wunderground v.1.13,2013-05-30 02:28:00,
2013-05-29 22:33:00,71.3,64.8,30.14,ENE,61,0.0,0.0,80,0.00,,,0.00,Wunderground v.1.13,2013-05-30 02:33:00,
2013-05-29 22:39:00,71.1,65.0,30.14,ENE,61,0.0,0.0,81,0.00,,,0.00,Wunderground v.1.13,2013-05-30 02:39:00,
2013-05-29 22:44:00,70.9,64.8,30.14,ENE,61,0.0,0.0,81,0.00,,,0.00,Wunderground v.1.13,2013-05-30 02:44:00,
2013-05-29 22:50:00,70.6,64.8,30.14,ENE,61,0.0,0.0,82,0.00,,,0.00,Wunderground v.1.13,2013-05-30 02:50:00,
2013-05-29 22:56:00,70.4,65.0,30.15,ENE,61,0.0,3.0,83,0.00,,,0.00,Wunderground v.1.13,2013-05-30 02:56:00,
2013-05-29 23:01:00,70.1,64.7,30.15,ENE,61,0.0,0.0,83,0.00,,,0.00,Wunderground v.1.13,2013-05-30 03:01:00,
2013-05-29 23:07:00,69.9,64.5,30.15,ENE,61,0.0,0.0,83,0.00,,,0.00,Wunderground v.1.13,2013-05-30 03:07:00,
2013-05-29 23:13:00,69.5,64.1,30.15,ENE,61,0.0,2.0,83,0.00,,,0.00,Wunderground v.1.13,2013-05-30 03:13:00,
2013-05-29 23:19:00,69.2,64.2,30.15,ENE,61,0.0,0.0,84,0.00,,,0.00,Wunderground v.1.13,2013-05-30 03:19:00,
2013-05-29 23:24:00,68.9,63.9,30.15,ENE,61,0.0,0.0,84,0.00,,,0.00,Wunderground v.1.13,2013-05-30 03:24:00,
2013-05-29 23:30:00,68.6,63.6,30.15,ENE,61,0.0,0.0,84,0.00,,,0.00,Wunderground v.1.13,2013-05-30 03:30:00,
2013-05-29 23:36:00,68.3,63.3,30.15,ENE,61,0.0,0.0,84,0.00,,,0.00,Wunderground v.1.13,2013-05-30 03:36:00,
2013-05-29 23:41:00,68.1,63.1,30.15,ENE,61,0.0,0.0,84,0.00,,,0.00,Wunderground v.1.13,2013-05-30 03:41:00,
2013-05-29 23:47:00,67.7,63.0,30.15,ENE,61,0.0,0.0,85,0.00,,,0.00,Wunderground v.1.13,2013-05-30 03:47:00,
2013-05-29 23:52:00,67.5,62.8,30.15,ENE,61,0.0,0.0,85,0.00,,,0.00,Wunderground v.1.13,2013-05-30 03:52:00,
2013-05-29 23:58:00,67.1,62.8,30.16,ENE,61,0.0,0.0,86,0.00,,,0.00,Wunderground v.1.13,2013-05-30 03:58:00,